CZ-6A DEB, 54391

Orbit data source: Space-Track

CZ-6A DEB, 54391 is space debris in SSO originally from a launch on Fri, 11 Nov 2022 UTC launched from the Taiyaun Space Center, China (TSC). Debris objects in space refer to the collection of defunct objects orbiting the Earth. Examples of debris include non-operational satellites, rocket bodies, and fragments generated from explosions, collisions, or faulty payload assembly.

Loading next visibility...
Identifier
54391, 2022-151DP
Orbit
SSO
Country
Flag of CNCN / PRC
Related business
Manufacturer
SAST
Mission
Spacecraft
Bus & Motor
Unknown
Mass
Unknown
Launch date (UTC)
2022-11-11 (4 years ago)
Launch vehicle
Unknown
Launch site
Taiyaun Space Center, China (TSC)
Object type
Payload
Rocket body
Debris
Shape & HBR
Unknown shape, 0.1 m
Radar Cross Section
Medium (>0.1 m² and <1 m²)

Expand to show TLE details & history
Last TLE update: 2 days ago

TLE from 2 days ago
0 CZ-6A DEB
1 54391U 22151DP  26171.04807762  .00001040  00000-0  22259-3 0  9992
2 54391  98.4627 211.2911 0132199 251.2244 107.4572 14.55770504190499
Epoch: 2026-06-20T01:09Z
TLE epoch observation values (Epoch: 2026-06-20T01:09:13.906Z)
Latitude
-0.00002°
Longitude
-74.28514°
Altitude
739.059 km
Speed
7.47 km/s
True Right ascension
14h 05m 09s
True Declination
0° 00' 00"
Sunlit
Object was in full shadow at epoch
Visualization orbit readout
Latitude
Unknown
Longitude
Unknown
Altitude
Unknown
Speed
Unknown
Apparent Right ascension
Unknown
Apparent Declination
Unknown
Sunlit
N/A
Visualization observer readout
Local Sidereal Time
21:31:53
Azimuth
Unknown
Elevation
Unknown
Doppler factor
Unknown
Orbital elements
Apogee altitude
797.587 km
Perigee altitude
610.337 km
Semi-major axis
7,082.099 km
Eccentricity
0.01322
Inclination
98.4627°
RAAN
211.2911°
Arg. of periapsis
251.2244°
True anomaly
108.89503°
Mean anomaly
107.4572°
Eccentric anomaly
108.17685°
Mean motion
3.64167 °/min
Orbital period
98.86 mins
BSTAR
0.00022259
Loading maneuver chart data...
Computing Atmospheric mass density...
Loading historical data...
Loading historical data...
Loading historical data...
Loading historical data...
Loading historical data...
Loading historical data...
Loading historical data...

Documentation

Showing up to 5 results
|